When you browse on this site, cookies collect data to enhance your experience and personalize the content and advertising you see.
Visit our Privacy Policy to learn more. By continuing to use the site, you agree to this use of cookies and data.
  • In Sweden
  • List of Countries
  • For 7 days
  • Water Temperature
  • Weather Map
  • Weather Widgets
  • user-avatar
    Login

    Hourly Weather Spanaway

    Today, 7 December, Saturday

    Time Temperature Precipitation Wind Pressure Humidity
    00:00 +8°C° 1 mm 0 mps 746 mmHg 93%
    01:00 +8°C° 1 mm 0 mps 745 mmHg 94%
    02:00 +8°C° 2.2 mm 0 mps 745 mmHg 95%
    03:00 +9°C° 2.2 mm 1 mps 745 mmHg 96%
    04:00 +9°C° 2.2 mm 1 mps 745 mmHg 97%
    05:00 +9°C° 0.7 mm 1 mps 744 mmHg 96%
    06:00 +9°C° 0.7 mm 1 mps 744 mmHg 95%
    07:00 +8°C° 0.7 mm 0 mps 744 mmHg 94%
    08:00 +9°C° 0 mm 0 mps 744 mmHg 93%
    09:00 +9°C° 0 mm 0 mps 745 mmHg 91%
    10:00 +9°C° 0 mm 0 mps 745 mmHg 90%
    11:00 +9°C° 0.6 mm 0 mps 745 mmHg 91%
    12:00 +9°C° 0.6 mm 0 mps 745 mmHg 92%
    13:00 +10°C° 0.6 mm 1 mps 744 mmHg 93%
    14:00 +10°C° 0.6 mm 1 mps 745 mmHg 94%
    15:00 +9°C° 0.6 mm 0 mps 745 mmHg 95%
    16:00 +9°C° 0.6 mm 0 mps 745 mmHg 95%
    17:00 +9°C° 0.1 mm 0 mps 745 mmHg 96%
    18:00 +9°C° 0.1 mm 0 mps 745 mmHg 96%
    19:00 +8°C° 0.1 mm 0 mps 745 mmHg 97%
    20:00 +8°C° 0 mm 0 mps 746 mmHg 97%
    21:00 +8°C° 0 mm 0 mps 746 mmHg 97%
    22:00 +8°C° 0 mm 0 mps 747 mmHg 97%
    23:00 +8°C° 0 mm 0 mps 747 mmHg 97%

    Tomorrow, 8 December, Sunday

    Time Temperature Precipitation Wind Pressure Humidity
    00:00 +8°C° 0 mm 0 mps 747 mmHg 97%
    01:00 +8°C° 0 mm 0 mps 747 mmHg 98%
    02:00 +8°C° 0 mm 0 mps 748 mmHg 98%
    03:00 +8°C° 0 mm 0 mps 748 mmHg 97%
    04:00 +8°C° 0 mm 0 mps 749 mmHg 97%
    05:00 +8°C° 0 mm 0 mps 749 mmHg 97%
    06:00 +8°C° 0 mm 0 mps 750 mmHg 97%
    07:00 +8°C° 0 mm 0 mps 750 mmHg 97%
    08:00 +8°C° 0.1 mm 0 mps 750 mmHg 97%
    09:00 +8°C° 0.1 mm 0 mps 751 mmHg 96%
    10:00 +8°C° 0.1 mm 0 mps 751 mmHg 95%
    11:00 +9°C° 0 mm 0 mps 752 mmHg 94%
    12:00 +9°C° 0 mm 0 mps 752 mmHg 92%
    13:00 +10°C° 0 mm 0 mps 752 mmHg 90%
    14:00 +9°C° 0.1 mm 0 mps 752 mmHg 92%
    15:00 +9°C° 0.1 mm 0 mps 752 mmHg 93%
    16:00 +8°C° 0.1 mm 0 mps 753 mmHg 95%
    17:00 +8°C° 0 mm 0 mps 753 mmHg 95%
    18:00 +8°C° 0 mm 0 mps 753 mmHg 95%
    19:00 +7°C° 0 mm 0 mps 754 mmHg 94%
    20:00 +7°C° 0 mm 0 mps 754 mmHg 94%
    21:00 +7°C° 0 mm 0 mps 754 mmHg 94%
    22:00 +7°C° 0 mm 0 mps 755 mmHg 94%
    23:00 +7°C° 0 mm 0 mps 755 mmHg 94%

    Day after tomorrow, 9 December, Monday

    Time Temperature Precipitation Wind Pressure Humidity
    00:00 +6°C° 0 mm 0 mps 755 mmHg 94%
    01:00 +6°C° 0 mm 0 mps 756 mmHg 94%
    02:00 +6°C° 0 mm 0 mps 756 mmHg 93%
    03:00 +6°C° 0 mm 0 mps 756 mmHg 93%
    04:00 +6°C° 0 mm 0 mps 756 mmHg 93%
    05:00 +5°C° 0 mm 0 mps 756 mmHg 93%
    06:00 +5°C° 0 mm 0 mps 756 mmHg 93%
    07:00 +5°C° 0 mm 0 mps 756 mmHg 92%
    08:00 +6°C° 0 mm 0 mps 756 mmHg 90%
    09:00 +7°C° 0 mm 0 mps 756 mmHg 87%
    10:00 +8°C° 0 mm 0 mps 756 mmHg 84%
    11:00 +8°C° 0 mm 0 mps 756 mmHg 80%
    12:00 +9°C° 0 mm 0 mps 755 mmHg 77%
    13:00 +10°C° 0 mm 0 mps 755 mmHg 73%
    14:00 +9°C° 0 mm 0 mps 755 mmHg 78%
    15:00 +8°C° 0 mm 0 mps 755 mmHg 83%
    16:00 +7°C° 0 mm 0 mps 755 mmHg 88%
    17:00 +7°C° 0 mm 0 mps 755 mmHg 88%
    18:00 +6°C° 0 mm 0 mps 755 mmHg 88%
    19:00 +6°C° 0 mm 0 mps 755 mmHg 89%
    20:00 +7°C° 0 mm 1 mps 755 mmHg 88%
    21:00 +6°C° 0 mm 1 mps 756 mmHg 88%
    22:00 +6°C° 0 mm 1 mps 756 mmHg 88%
    23:00 +6°C° 0 mm 1 mps 756 mmHg 88%

    10 December, Tuesday

    Time Temperature Precipitation Wind Pressure Humidity
    00:00 +6°C° 0 mm 1 mps 756 mmHg 87%
    01:00 +5°C° 0 mm 1 mps 755 mmHg 87%
    02:00 +6°C° 0 mm 1 mps 755 mmHg 85%
    03:00 +6°C° 0 mm 1 mps 755 mmHg 84%
    04:00 +6°C° 0 mm 1 mps 755 mmHg 82%
    05:00 +5°C° 0 mm 1 mps 755 mmHg 82%
    06:00 +5°C° 0 mm 1 mps 755 mmHg 81%
    07:00 +5°C° 0 mm 1 mps 755 mmHg 81%
    08:00 +5°C° 0 mm 0 mps 755 mmHg 77%
    09:00 +6°C° 0 mm 0 mps 755 mmHg 74%
    10:00 +7°C° 0 mm 0 mps 755 mmHg 70%
    11:00 +8°C° 0.2 mm 0 mps 755 mmHg 73%
    12:00 +8°C° 0.2 mm 0 mps 755 mmHg 76%
    13:00 +8°C° 0.2 mm 0 mps 754 mmHg 79%
    14:00 +8°C° 0.8 mm 0 mps 755 mmHg 84%
    15:00 +8°C° 0.8 mm 1 mps 755 mmHg 89%
    16:00 +8°C° 0.8 mm 1 mps 755 mmHg 94%
    17:00 +8°C° 0.2 mm 1 mps 755 mmHg 94%
    18:00 +8°C° 0.2 mm 1 mps 755 mmHg 94%
    19:00 +8°C° 0.2 mm 1 mps 755 mmHg 93%
    20:00 +8°C° 0.1 mm 1 mps 755 mmHg 94%
    21:00 +8°C° 0.1 mm 1 mps 756 mmHg 94%
    22:00 +8°C° 0.1 mm 1 mps 756 mmHg 95%
    23:00 +8°C° 0 mm 1 mps 756 mmHg 94%

    11 December, Wednesday

    Time Temperature Precipitation Wind Pressure Humidity
    00:00 +7°C° 0 mm 1 mps 756 mmHg 94%
    01:00 +7°C° 0 mm 1 mps 756 mmHg 94%
    02:00 +7°C° 0 mm 1 mps 756 mmHg 93%
    03:00 +7°C° 0 mm 1 mps 756 mmHg 93%
    04:00 +7°C° 0 mm 1 mps 756 mmHg 92%
    05:00 +7°C° 0 mm 1 mps 756 mmHg 92%
    06:00 +7°C° 0 mm 1 mps 756 mmHg 91%
    07:00 +7°C° 0 mm 1 mps 756 mmHg 91%
    08:00 +8°C° 0 mm 1 mps 757 mmHg 89%
    09:00 +8°C° 0 mm 1 mps 757 mmHg 87%
    10:00 +9°C° 0 mm 1 mps 757 mmHg 85%
    11:00 +10°C° 0 mm 1 mps 756 mmHg 81%
    12:00 +11°C° 0 mm 1 mps 756 mmHg 78%
    13:00 +11°C° 0 mm 1 mps 756 mmHg 75%
    14:00 +11°C° 0 mm 1 mps 756 mmHg 78%
    15:00 +10°C° 0 mm 1 mps 755 mmHg 81%
    16:00 +9°C° 0 mm 0 mps 755 mmHg 83%
    17:00 +10°C° 0 mm 1 mps 755 mmHg 83%
    18:00 +9°C° 0 mm 1 mps 755 mmHg 83%
    19:00 +9°C° 0 mm 1 mps 755 mmHg 83%
    20:00 +9°C° 0 mm 1 mps 755 mmHg 84%
    21:00 +9°C° 0 mm 1 mps 755 mmHg 85%
    22:00 +8°C° 0 mm 1 mps 755 mmHg 86%
    23:00 +8°C° 0 mm 1 mps 755 mmHg 87%

    12 December, Thursday

    Time Temperature Precipitation Wind Pressure Humidity
    00:00 +8°C° 0 mm 1 mps 755 mmHg 87%
    01:00 +7°C° 0 mm 1 mps 755 mmHg 87%
    02:00 +7°C° 0.6 mm 2 mps 754 mmHg 88%
    03:00 +7°C° 0.6 mm 2 mps 754 mmHg 89%
    04:00 +7°C° 0.6 mm 3 mps 754 mmHg 90%
    05:00 +7°C° 1.6 mm 3 mps 754 mmHg 90%
    06:00 +7°C° 1.6 mm 3 mps 754 mmHg 89%
    07:00 +8°C° 1.6 mm 3 mps 754 mmHg 89%
    08:00 +8°C° 0.3 mm 2 mps 754 mmHg 89%
    09:00 +8°C° 0.3 mm 2 mps 754 mmHg 88%
    10:00 +9°C° 0.3 mm 2 mps 754 mmHg 88%
    11:00 +9°C° 0.1 mm 2 mps 754 mmHg 85%
    12:00 +10°C° 0.1 mm 2 mps 754 mmHg 82%
    13:00 +11°C° 0.1 mm 3 mps 754 mmHg 79%
    14:00 +10°C° 0.1 mm 2 mps 754 mmHg 82%
    15:00 +11°C° 0.1 mm 1 mps 754 mmHg 85%
    16:00 +10°C° 0.1 mm 1 mps 754 mmHg 88%
    17:00 +10°C° 0 mm 1 mps 753 mmHg 89%
    18:00 +9°C° 0 mm 1 mps 753 mmHg 90%
    19:00 +9°C° 0 mm 1 mps 753 mmHg 90%
    20:00 +9°C° 0.2 mm 1 mps 753 mmHg 90%
    21:00 +9°C° 0.2 mm 1 mps 752 mmHg 90%
    22:00 +9°C° 0.2 mm 1 mps 752 mmHg 89%
    23:00 +8°C° 1 mm 2 mps 752 mmHg 90%
    Show more